CZ-3C DEB, 40195

Orbit data source: Space-Track

CZ-3C DEB, 40195 is space debris in HEO originally from a launch on Fri, 24 Feb 2012 UTC launched from the Xichang Space Center, China (XSC). Debris objects in space refer to the collection of defunct objects orbiting the Earth. Examples of debris include non-operational satellites, rocket bodies, and fragments generated from explosions, collisions, or faulty payload assembly.

Loading next visibility...
Identifier
40195, 2012-008E
Orbit
HEO
Country
Flag of CNCN / PRC
Related business
Manufacturer
CALT
Mission
Spacecraft
Bus & Motor
Unknown
Mass
Unknown
Launch date (UTC)
2012-02-24 (14 years ago)
Launch vehicle
Unknown
Launch site
Xichang Space Center, China (XSC)
Object type
Payload
Rocket body
Debris
Shape & HBR
Unknown shape, 0.2 m
Radar Cross Section
Medium (>0.1 m² and <1 m²)

Expand to show TLE details & history
Last TLE update: 1 day ago

TLE from 1 day ago
0 CZ-3C DEB
1 40195U 12008E   25306.37777478  .00001555  00000-0  45084-2 0  9995
2 40195  20.2775 273.5116 7118123  44.0512 354.3963  2.39435456 11699
Epoch: 2025-11-02T09:03Z
TLE epoch observation values (Epoch: 2025-11-02T09:03:59.740Z)
Latitude
0.0003°
Longitude
95.55399°
Altitude
1,345.244 km
Speed
9.291 km/s
True Right ascension
18h 13m 47s
True Declination
0° 00' 01"
Sunlit
Object was in daylight at epoch
Visualization orbit readout
Latitude
Unknown
Longitude
Unknown
Altitude
Unknown
Speed
Unknown
Apparent Right ascension
Unknown
Apparent Declination
Unknown
Sunlit
N/A
Visualization observer readout
Local Sidereal Time
14:41:32
Azimuth
Unknown
Elevation
Unknown
Doppler factor
Unknown
Orbital elements
Apogee altitude
34,031.088 km
Perigee altitude
424.853 km
Semi-major axis
23,606.108 km
Eccentricity
0.71181
Inclination
20.2775°
RAAN
273.5116°
Arg. of periapsis
44.0512°
True anomaly
316.40537°
Mean anomaly
354.3963°
Eccentric anomaly
341.36286°
Mean motion
0.59842 °/min
Orbital period
601.58 mins
BSTAR
0.0045084
Loading maneuver chart data...
Computing Atmospheric mass density...
Loading historical data...
Loading historical data...
Loading historical data...
Loading historical data...
Loading historical data...
Loading historical data...
Loading historical data...

Documentation

Showing up to 5 results
|